Flag for Germany Weather past 2 weeks in Trier, Rhineland-Palatinate, Germany

Now
65 °F

Clear.


Feels Like: 65 °F
Forecast: 52 / 83 °F
Wind: No wind

Location: Spangdahlem

Current Time: Aug 2, 2015 at 12:40:39 AM

Latest Report: Aug 1, 2015 at 10:58 PM


Visibility: N/A

Pressure: 30.00 "Hg

Humidity: 53%

Dew point: 47 °F

Location of TrierLocation

Historic Weather in Trier — Graph

°F

Trier temperature yesterday

Maximum temperature yesterday: 78 °F (at 5:58 PM)
Minimum temperature yesterday: 54 °F (at 6:58 AM)
Average temperature yesterday: 66 °F

Past Weeks' High & Low Weather Summary

 TemperatureHumidityPressure
High85 °F (Jul 21, 6:58 PM)100% (Jul 19, 7:58 AM)30.13 "Hg (Jul 19, 7:58 AM)
Low43 °F (Jul 31, 6:03 AM)31% (Aug 1, 5:58 PM)29.57 "Hg (Jul 25, 6:58 AM)
Average64 °F70%29.88 "Hg
* Reported Jul 17 10:58 PM — Aug 1 10:58 PM, Trier, Weather by CustomWeather, © 2015

Note: Actual official high and low records may vary slightly from our data, if they occured in-between our weather recording intervals... More about our weather records

Advertising

Trier weather history for previous 24 hours

 ConditionsComfort  
Time TempWeatherWind HumidityBarometerVisibility
10:58 PM
Sat, Aug 1
65 °FClear.No wind53%30.00 "HgN/A
9:58 PM67 °FSunny.3 mph50%29.98 "HgN/A
8:58 PM69 °FSunny.7 mph46%29.96 "HgN/A
7:58 PM72 °FSunny.7 mph43%29.93 "HgN/A
6:58 PM77 °FSunny.2 mph32%29.91 "HgN/A
5:58 PM78 °FSunny.5 mph31%29.90 "HgN/A
4:58 PM77 °FScattered clouds.2 mph34%29.90 "HgN/A
3:58 PM77 °FSunny.5 mph33%29.90 "HgN/A
2:58 PM75 °FSunny.7 mph34%29.91 "HgN/A
1:58 PM75 °FSunny.2 mph39%29.91 "HgN/A
12:58 PM71 °FSunny.1 mph44%29.91 "HgN/A
11:58 AM68 °FSunny.2 mph47%29.93 "HgN/A
10:58 AM65 °FSunny.5 mph50%29.93 "HgN/A
9:58 AM63 °FSunny.8 mph52%29.93 "HgN/A
8:58 AM59 °FSunny.8 mph59%29.93 "HgN/A
7:58 AM57 °FSunny.6 mph59%29.92 "HgN/A
6:58 AM54 °FClear.7 mph67%29.90 "HgN/A
5:58 AM55 °FPassing clouds.7 mph59%29.90 "HgN/A
4:58 AM55 °FPassing clouds.8 mph59%29.90 "HgN/A
3:58 AM56 °FOvercast.8 mph57%29.90 "HgN/A
2:58 AM56 °FOvercast.10 mph59%29.92 "HgN/A
1:58 AM57 °FPassing clouds.9 mph58%29.93 "HgN/A
12:58 AM57 °FPassing clouds.3 mph59%29.95 "HgN/A
Weather by CustomWeather, © 2015

See weather overviewHow to use our weather pages